Regional Weather Roundup
Issued by NWS Wakefield, VA

Home | Current Version | Previous Version | Text Only | Print | Product List | Glossary On
Versions: 1 2 3 4 5 6 7 8 9 10 11 12 13 14 15 16 17 18 19 20 21 22 23 24 25 26 27 28 29 30 31 32 33 34 35 36 37 38 39 40 41 42 43 44 45 46 47 48 49 50
000
ASUS41 KAKQ 192110
RWRAKQ

REGIONAL WEATHER ROUNDUP
NATIONAL WEATHER SERVICE WAKEFIELD VA
500 PM EDT FRI SEP 19 2014

Note: "fair" indicates few or no clouds below 12,000 feet with no
significant weather and/or obstructions to visibility. * = Denotes
station may not report precipitation (e.g., rain,snow,etc.),
thunder or fog.

VAZ042-051-052>054-056-192200-
NORTHERN VIRGINIA

CITY           SKY/WX    TMP DP  RH WIND       PRES   REMARKS
WASH NATIONAL  PTSUNNY   77  52  41 E8        30.25S
DULLES         PTSUNNY   72  52  49 SE7       30.25S
FORT BELVOIR   MOSUNNY   73  57  57 VRB5      30.25S
QUANTICO       PTSUNNY   76  55  48 E10       30.25S
FREDERICKSBRG* PTSUNNY   75  58  56 NE6       30.23R
STAFFORD*      PTSUNNY   74  58  56 E8        30.28S
WARRENTON      CLOUDY    74  62  65 E6        30.24S
CULPEPER*      PTSUNNY   73  55  53 CALM      30.25S
MANASSAS*      NOT AVBL
LEESBURG*      CLOUDY    73  59  60 SE7       30.26S
WINCHESTER     CLOUDY    70  54  56 SE10G16   30.24S
FRONT ROYAL*   CLOUDY    70  55  60 CALM      30.24S
LURAY*         CLOUDY    72  57  60 SW10      30.25S
$$

VAZ048-049-060>072-079>083-192200-
CENTRAL AND SOUTH CENTRAL VIRGINIA...AND NORTH CENTRAL NORTH CAROLINA

CITY           SKY/WX    TMP DP  RH WIND       PRES   REMARKS
RICHMOND       PTSUNNY   75  55  49 E13       30.23R
CHESTERFIELD*  PTCLDY   N/A N/A N/A SE6       30.23S
PETERSBURG*    MOSUNNY   74  57  54 SE5       30.23R
HANOVER        CLOUDY    73  60  63 VRB5      30.24R
TAPPAHANNOCK*  MOSUNNY   76  53  44 E5        30.24S
CHARLOTTSVILLE CLOUDY    68  58  70 W5        30.25S
ORANGE*        CLOUDY    70  59  68 NE5       30.26S
LOUISA*        CLOUDY    72  63  73 CALM      30.24R
FARMVILLE*     PTSUNNY   72  61  68 NE5       30.22S
CREWE*         CLOUDY    72  59  63 CALM      30.23S
FORT PICKETT*  PTCLDY    74  60  59 NE6       30.23S
LUNENBURG*     CLOUDY    74  61  65 CALM      30.23R
SOUTH HILL*    PTSUNNY   73  64  73 CALM      30.27R
LAWRENCEVILLE* PTCLDY    73  62  66 E6        30.21S
ROANOKE RAPIDS CLOUDY    73  61  64 E7        30.20S
RALEIGH        PTSUNNY   76  59  55 E8        30.19R
$$

VAZ088>098-192200-
SOUTHEAST VIRGINIA

CITY           SKY/WX    TMP DP  RH WIND       PRES   REMARKS
NORFOLK        MOSUNNY   75  56  51 E8        30.22S
VIRGINIA BEACH MOSUNNY   75  58  55 E12       30.22S
NORFOLK NAVAL  MOSUNNY   76  57  51 E14       30.24S
WEST POINT*    PTSUNNY   77  58  51 E6        30.25R
NEWPORT NEWS   SUNNY     77  58  51 E9        30.23R
LANGLEY AFB    SUNNY     75  57  54 E10       30.23R
FORT EUSTIS    SUNNY     76  52  43 E7        30.22R
WILLIAMSBURG*  MOSUNNY   77  61  57 E3        30.24R
HR EXEC AP*    PTCLDY    77  57  50 E9        30.23S
FRANKLIN*      CLOUDY    75  57  53 NE9       30.21S
WAKEFIELD      MOSUNNY   77  55  46 E8        30.22R
$$

VAZ020-022-025-037-045-192200-
WEST CENTRAL AND SOUTHWEST VIRGINIA

CITY           SKY/WX    TMP DP  RH WIND       PRES   REMARKS
STAUNTON*      CLOUDY    66  54  63 S5        30.28S
HOT SPRINGS VA RAIN      51  48  90 SE6       30.32S VSB<1/4
LYNCHBURG      CLOUDY    64  59  83 N6        30.26S
DANVILLE       PTSUNNY   69  62  78 NE9       30.22S
SOUTH BOSTON*  NOT AVBL
MARTINSVILLE   CLOUDY    68  64  87 NE6       30.26R
ROANOKE        CLOUDY    62  56  80 N3        30.27F
BLACKSBURG     CLOUDY    61  61 100 E8        30.28S
DUBLIN*        CLOUDY    64  60  88 E8        30.26S
MARION*        CLOUDY    69  58  69 E10       30.24S
HILLSVILLE*    CLOUDY    64  57  78 CALM      30.25S
RICHLANDS*     PTCLDY    74  60  61 SE8       30.18S
WISE*          PTSUNNY   77  55  47 S6        30.16F
ABINGDON*      MOSUNNY   77  59  54 S9        30.16S
$$

MDZ021>025-VAZ099-100-192200-
SOUTHERN MARYLAND AND THE DELMARVA PENINSULA

CITY           SKY/WX    TMP DP  RH WIND       PRES   REMARKS
PATUXENT RIVER PTSUNNY   75  56  51 E12       30.25R
BAY BRIDGE APT   N/A     72  54  53 E13       30.26S
LEONARDTOWN    PTSUNNY   73  54  49 NE6       30.26S
DOVER          MOSUNNY   70  58  64 E16       30.27S
GEORGETOWN     MOSUNNY   71  58  63 E16G29    30.29R
EASTON         MOSUNNY   73  59  60 SE12      30.30R
CAMBRIDGE      MOSUNNY   73  55  53 E10       30.25S
SALISBURY      CLOUDY    73  60  63 E7        30.27R
OCEAN CITY     PTSUNNY   71  61  70 E14G22    30.27R
WALLOPS ISLAND SUNNY     74  60  61 E10       30.26R
ACCOMACK*      CLOUDY    72  57  60 E3        30.25R
$$

NCZ012>017-030>032-192200-
EASTERN NORTH CAROLINA

CITY           SKY/WX    TMP DP  RH WIND       PRES   REMARKS
ELIZABETH CITY SUNNY     75  58  55 E14       30.21S
AHOSKIE*       SUNNY     76  57  51 E5        30.21R
EDENTON*       SUNNY     75  59  57 E12G18    30.21R
CURRITUCK*     SUNNY     76  54  46 E9        30.23S
KILL DEVIL HLS SUNNY     75  57  54 NE8       30.20S
MANTEO         SUNNY     74  58  56 NE12      30.21S
CAPE HATTERAS  PTSUNNY   73  63  70 NE13G21   30.17S
TARBORO*       CLEAR     79  59  49 E8        30.21R
GOLDSBORO      PTSUNNY   82  66  57 E7        30.14F
WASHINGTON     SUNNY     78  58  50 NE10G17   30.19R
GREENVILLE     SUNNY     79  59  50 E10       30.19S
NEW BERN       MOSUNNY   80  60  50 E16       30.18R
WILMINGTON     PTSUNNY   77  66  68 NE20G28   30.14R
$$

VAZ048-192200-
ELSEWHERE

CITY           SKY/WX    TMP DP  RH WIND       PRES   REMARKS
HARRISBURG PA  PTSUNNY   71  53  52 SE13      30.26S
BALTIMORE      PTSUNNY   73  57  57 E13       30.26S
ANNAPOLIS        N/A     71  58  63 E10       30.26S
ANDREWS AFB    SUNNY     73  52  48 E6        30.25S
WILMINGTON DE  PTSUNNY   70  54  56 E13       30.30S
PHILADELPHIA   PTSUNNY   68  52  56 E10       30.32R
WILDWOOD NJ*   PTSUNNY   70  55  60 NE17      30.30S
ATLANTIC CITY  PTSUNNY   66  56  70 NE15G23   30.32S
HENDERSON NC   CLOUDY    73  60  64 E5        30.21S
GREENSBORO     PTSUNNY   72  62  71 NE12      30.20R
ROCKY MOUNT    CLOUDY    77  59  53 E8        30.19R
FAYETTEVILLE   MOSUNNY   80  62  54 E6        30.14S
CHARLOTTE      PTSUNNY   78  55  44 E9        30.16S
$$

VAZ100-192200-
MARINE

STATION/POSITION TIME  TEMP    WIND        PRES    WAVE   SWELL
                       AIR SEA DIR/SP/G            HT/PER HT/PER
                 (UTC) (F)     (DEG/KT/KT) (MB)    (FT/S) (FT/S)
44066 TX TWR #4  2100   64 72   60/ 19/ 23 1026.2R   6/ 7   2/ 9
CAPE MAY NJ      2100   68 76   70/ 12/ 17 1025.2S
LEWES DE         2100   68 73   70/ 18/ 22 1025.3R
15NM E FENWICK I 2100   70 72              1024.6R   5/ 6
OCEAN-CITY-INLET 2100   71 72   70/ 11/ 17 1024.6R
WACHAPREAGUE VA  2100   72 75  110/  5/  7 1024.2S
THOMAS POINT MD  2100   70 74   80/ 15/ 16 1025.6R
GOOSES REEF MD   2100   72     110/ 10/ 14 1024.8F
COVE POINT MD    2100   71     100/ 12/ 14 1024.3R
SOLOMONS ISLAND  2100      77                N/A
BISHOPS HEAD MD  2100   71 74   90/ 11/ 13 1023.8S
PINEY POINT MD   2100           90/  5/  6   N/A
POTOMAC MD       2100   74      70/  4/  6 1023.4S
CAMBRIDGE MD     2100   72 74   70/ 14/ 17 1024.1S
LEWISETTA VA     2100   74 75   80/  5/  7 1023.8R
RAPPAHANNOCK LGT 2100          100/  9/ 11 1024.5R
STINGRAY PT      2100   73      80/  6/  8   N/A
YORK RVR RNG VA  2100   74      90/  8/  9 1023.4R
YORKTOWN VA      2100   73 77  100/  9/ 11 1023.5R
JAMESTOWN VA     2100   72     120/  6/ 12   N/A
DOMINION TERM VA 2100   73      70/ 10/ 13 1023.7R
KIPTOPEKE VA     2100      80  110/  7/ 10   N/A
CHES BAY BRIDGE  2100   72 75   80/ 11/ 12 1023.2R
CAPE HENRY VA    2100   72      70/ 10/ 13 1022.4R
CHESAPEAKE LGHT  2000   71      60/ 12/ 13 1024.2R
WILLOUBY STN VA  2100   72     100/ 10/ 12 1022.4R
S CRANEY ISL VA  2100           40/ 10/ 14 1023.1R
CAPE HENRY BUOY  2100      76                N/A     3/ 5
1ST LANDING BUOY 2100   73      90/ 10/ 12 1023.1S
CAPE CHARLES BUO 2100      75                N/A     3/10   2/10
OFFSHORE WE BUOY 2100      75                N/A     3/11   3/11
64NM E OF VA BCH 2100   73 76   50/ 14/ 16 1022.7S   3/ 7   2/ 7
DUCK PIER NC     2100   73 75   50/ 15/ 17 1022.3S
44100 DUCK FRF   2100      75                N/A     4/ 7   2/11
44056 DUCK FRF   2100                        N/A     4/ 6   2/11
OREGON INLET NC  2100   74 74   30/ 12/ 18 1022.4R
HATTERAS NC      2100   75 75   40/ 11/ 19 1021.9R
DIAMOND SHLS NC  2100   78      30/ 17/ 21 1020.6S   6/ 7   2/11
CAPE LOOKOUT NC  2000   73      40/ 26/ 31 1020.4F
$$


USA.gov is the U.S. government's official web portal to all federal, state and local government web resources and services.